Location: Kaseke
(18.0171°S, 31.0526°E)
Time: 12:45:56
(UTC+00:00)

Cosmos 2297 Rocket - Pass Details

Date: 14 July 2020
Orbit: 839 x 844 km, 71.0° (Epoch: 07 August)

Event Time Altitude Azimuth Distance (km) Brightness Sun altitude
Exits shadow 03:02:12 23° 204° (SSW) 1,737 3.5 -19.9°
Maximum altitude 03:05:52 75° 285° (WNW) 873 2.1 -19.1°
Drops below altitude 10° 03:11:28 10° 10° (N) 2,444 5.0 -17.8°
Sets 03:13:53 0° 12° (NNE) 3,372 5.7 -17.3°
